Knoxville, IA

8:45 AM CDT on August 16, 2017 (GMT -0500)
Knoxville Municipal

Weather History for KOXV - September, 2014

Change the Weather History Date:

Thursday, September 18, 2014

  Actual Average Record
Temperature  
Mean Temperature 61 °F -  
Max Temperature 71 °F 75 °F 94 °F (1948)
Min Temperature 51 °F 55 °F 39 °F (2012)
Degree Days  
Heating Degree Days 4    
Growing Degree Days 11 (Base 50)    
Moisture  
Dew Point 54 °F    
Average Humidity 79    
Maximum Humidity 100    
Minimum Humidity 43    
Precipitation  
Precipitation 0.00 in - - ()
Sea Level Pressure  
Sea Level Pressure 30.04 in    
Wind  
Wind Speed 6 mph (SE)    
Max Wind Speed 14 mph    
Max Gust Speed 18 mph    
Visibility 7 miles    
Events Fog    
Averages and records for this station are not official NWS values.
T = Trace of Precipitation, MM = Missing Value Source: NWS Daily Summary

Daily Weather History Graph

Daily Weather History Graph

Search for Another Location

Airport or City:

Trip Planner

Search our weather history database for the weather conditions in past years. The results will help you decide how hot, cold, wet, or windy it might be!

Date:

Astronomy

Sep. 18, 2014 Rise Set
Actual Time 6:55 AM CDT 7:16 PM CDT
Civil Twilight 6:28 AM CDT 7:44 PM CDT
Nautical Twilight 5:55 AM CDT 8:16 PM CDT
Astronomical Twilight 5:22 AM CDT 8:49 PM CDT
Moon 1:45 AM CDT (9/18) 4:10 PM CDT (9/18)
Length of Visible Light 13h 15m
Length of Day
12h 20m
Waning Crescent, 26% of the Moon is Illuminated
Sep 18
Waning Crescent
Sep 24
New
Oct 1
First Quarter
Oct 8
Full
Oct 15
Last Quarter

Hourly Weather History & Observations

Time (CDT) Temp. Dew Point Humidity Pressure Visibility Wind Dir Wind Speed Gust Speed Precip Events Conditions
12:15 AM 59.0 °F 55.4 °F 88% 30.00 in 10.0 mi SE 5.8 mph - N/A   Clear
12:35 AM 57.2 °F 55.4 °F 94% 30.00 in 10.0 mi SE 5.8 mph - N/A   Clear
12:55 AM 57.2 °F 55.4 °F 94% 30.00 in 10.0 mi SE 5.8 mph - N/A   Partly Cloudy
1:15 AM 57.2 °F 55.4 °F 94% 30.00 in 10.0 mi SE 5.8 mph - N/A   Clear
1:35 AM 57.2 °F 55.4 °F 94% 30.01 in 9.0 mi SE 4.6 mph - N/A   Clear
1:55 AM 57.2 °F 55.4 °F 94% 30.01 in 8.0 mi ESE 4.6 mph - N/A   Clear
2:15 AM 55.4 °F 53.6 °F 94% 30.01 in - ENE 5.8 mph - N/A   Unknown
2:35 AM 55.4 °F 53.6 °F 94% 30.01 in 7.0 mi East 4.6 mph - N/A   Scattered Clouds
3:15 AM 55.4 °F 53.6 °F 94% 30.00 in 5.0 mi East 3.5 mph - N/A   Clear
3:35 AM 55.4 °F 53.6 °F 94% 30.00 in 3.0 mi East 4.6 mph - N/A   Partly Cloudy
3:55 AM 55.4 °F 53.6 °F 94% 30.00 in 3.0 mi ESE 3.5 mph - N/A   Clear
4:15 AM 55.4 °F 53.6 °F 94% 30.00 in 3.0 mi East 3.5 mph - N/A   Partly Cloudy
4:35 AM 53.6 °F 53.6 °F 100% 30.00 in 4.0 mi East 4.6 mph - N/A   Scattered Clouds
4:55 AM 53.6 °F 51.8 °F 94% 30.01 in 2.0 mi East 3.5 mph - N/A   Mostly Cloudy
5:15 AM 53.6 °F 51.8 °F 94% 30.02 in 0.2 mi ESE 4.6 mph - N/A Fog Fog
5:35 AM 53.6 °F 51.8 °F 94% 30.03 in 0.2 mi East 4.6 mph - N/A Fog Fog
5:55 AM 51.8 °F 51.8 °F 100% 30.03 in 0.2 mi East 4.6 mph - N/A Fog Fog
6:15 AM 51.8 °F 51.8 °F 100% 30.03 in 0.2 mi SE 5.8 mph - N/A Fog Fog
6:35 AM 51.8 °F 51.8 °F 100% 30.03 in 0.2 mi Calm Calm - N/A Fog Fog
6:55 AM 51.8 °F 51.8 °F 100% 30.04 in 0.2 mi SE 5.8 mph - N/A Fog Fog
7:15 AM 51.8 °F 51.8 °F 100% 30.05 in 0.2 mi SE 4.6 mph - N/A Fog Fog
7:35 AM 53.6 °F 51.8 °F 94% 30.06 in 0.2 mi ESE 4.6 mph - N/A Fog Fog
7:55 AM 53.6 °F 51.8 °F 94% 30.06 in 0.2 mi Variable 3.5 mph - N/A Fog Fog
8:15 AM 53.6 °F 53.6 °F 100% 30.07 in 0.2 mi ESE 4.6 mph - N/A Fog Fog
8:35 AM 53.6 °F 53.6 °F 100% 30.08 in 0.2 mi SE 5.8 mph - N/A Fog Fog
8:55 AM 55.4 °F 53.6 °F 94% 30.08 in 0.2 mi ESE 4.6 mph - N/A Fog Fog
9:15 AM 55.4 °F 53.6 °F 94% 30.08 in 0.2 mi ESE 5.8 mph - N/A Fog Fog
9:35 AM 55.4 °F 55.4 °F 100% 30.09 in 0.2 mi East 5.8 mph - N/A Fog Fog
9:55 AM 57.2 °F 57.2 °F 100% 30.09 in 2.5 mi ESE 4.6 mph - N/A   Overcast
10:15 AM 59.0 °F 57.2 °F 94% 30.09 in 7.0 mi ESE 6.9 mph - N/A   Scattered Clouds
10:35 AM 60.8 °F 55.4 °F 82% 30.09 in 10.0 mi SE 5.8 mph - N/A   Clear
10:55 AM 62.6 °F 55.4 °F 77% 30.08 in 10.0 mi SE 10.4 mph - N/A   Clear
11:15 AM 64.4 °F 55.4 °F 73% 30.08 in 10.0 mi SE 9.2 mph - N/A   Clear
11:35 AM 66.2 °F 53.6 °F 64% 30.07 in 10.0 mi SE 13.8 mph - N/A   Clear
11:55 AM 66.2 °F 53.6 °F 64% 30.07 in 10.0 mi SE 10.4 mph - N/A   Partly Cloudy
12:15 PM 66.2 °F 53.6 °F 64% 30.07 in 10.0 mi SE 11.5 mph 18.4 mph N/A   Partly Cloudy
12:35 PM 68.0 °F 53.6 °F 60% 30.07 in 10.0 mi SSE 10.4 mph - N/A   Clear
12:55 PM 68.0 °F 53.6 °F 60% 30.07 in 10.0 mi SE 9.2 mph 17.3 mph N/A   Clear
1:15 PM 68.0 °F 53.6 °F 60% 30.07 in 10.0 mi South 9.2 mph 16.1 mph N/A   Scattered Clouds
1:35 PM 69.8 °F 53.6 °F 56% 30.07 in 10.0 mi SSE 9.2 mph - N/A   Partly Cloudy
1:55 PM 69.8 °F 51.8 °F 53% 30.06 in 10.0 mi South 12.7 mph - N/A   Clear
2:35 PM 69.8 °F 51.8 °F 53% 30.04 in 10.0 mi SSE 13.8 mph - N/A   Clear
2:55 PM 69.8 °F 51.8 °F 53% 30.04 in 10.0 mi SE 11.5 mph - N/A   Clear
3:15 PM 69.8 °F 51.8 °F 53% 30.03 in 9.0 mi SE 9.2 mph - N/A   Clear
3:35 PM 71.6 °F 50.0 °F 46% 30.03 in 10.0 mi SSE 9.2 mph 17.3 mph N/A   Clear
3:55 PM 71.6 °F 48.2 °F 43% 30.02 in 10.0 mi SE 12.7 mph - N/A   Clear
4:15 PM 71.6 °F 50.0 °F 46% 30.02 in 10.0 mi SE 12.7 mph - N/A   Clear
4:35 PM 71.6 °F 50.0 °F 46% 30.02 in 10.0 mi SSE 6.9 mph 15.0 mph N/A   Clear
4:55 PM 69.8 °F 50.0 °F 49% 30.02 in 10.0 mi SSE 12.7 mph - N/A   Clear
5:15 PM 69.8 °F 50.0 °F 49% 30.02 in 10.0 mi SSE 9.2 mph - N/A   Clear
5:35 PM 69.8 °F 51.8 °F 53% 30.02 in 10.0 mi SSE 6.9 mph - N/A   Clear
5:55 PM 69.8 °F 53.6 °F 56% 30.02 in 10.0 mi SSE 9.2 mph - N/A   Clear
6:15 PM 69.8 °F 53.6 °F 56% 30.02 in 10.0 mi SE 8.1 mph - N/A   Clear
6:35 PM 68.0 °F 53.6 °F 60% 30.02 in 10.0 mi SE 5.8 mph - N/A   Clear
6:55 PM 68.0 °F 53.6 °F 60% 30.02 in 10.0 mi SE 6.9 mph - N/A   Clear
7:15 PM 66.2 °F 55.4 °F 68% 30.02 in 10.0 mi SE 4.6 mph - N/A   Clear
7:35 PM 64.4 °F 55.4 °F 73% 30.02 in 10.0 mi SE 5.8 mph - N/A   Clear
7:55 PM 64.4 °F 55.4 °F 73% 30.02 in 10.0 mi SE 6.9 mph - N/A   Clear
8:15 PM 62.6 °F 55.4 °F 77% 30.02 in 10.0 mi SSE 4.6 mph - N/A   Clear
8:35 PM 62.6 °F 55.4 °F 77% 30.04 in 10.0 mi SSE 4.6 mph - N/A   Clear
8:55 PM 60.8 °F 55.4 °F 82% 30.04 in 10.0 mi SSE 5.8 mph - N/A   Clear
9:15 PM 60.8 °F 55.4 °F 82% 30.05 in 10.0 mi South 4.6 mph - N/A   Clear
9:35 PM 60.8 °F 55.4 °F 82% 30.04 in 10.0 mi SSE 6.9 mph - N/A   Clear
9:55 PM 60.8 °F 55.4 °F 82% 30.05 in 10.0 mi SSE 4.6 mph - N/A   Clear
10:15 PM 59.0 °F 55.4 °F 88% 30.05 in 10.0 mi SSE 4.6 mph - N/A   Clear
10:35 PM 59.0 °F 55.4 °F 88% 30.05 in 10.0 mi SSE 4.6 mph - N/A   Clear
10:55 PM 59.0 °F 55.4 °F 88% 30.05 in 10.0 mi SE 5.8 mph - N/A   Clear
11:15 PM 59.0 °F 55.4 °F 88% 30.04 in 10.0 mi ESE 5.8 mph - N/A   Clear
11:35 PM 57.2 °F 53.6 °F 88% 30.05 in 10.0 mi ESE 4.6 mph - N/A   Clear
11:55 PM 57.2 °F 53.6 °F 88% 30.05 in 10.0 mi ESE 4.6 mph - N/A   Clear